Location: downtown San Diego
(32.7310°N, 117.1990°W)
Time: 08:25:33
(UTC-07:00)

Lacrosse 5 - Pass Details

Date: 12 July 2018
Orbit: 713 x 726 km, 57.0° (Epoch: 21 September)

Event Time Altitude Azimuth Distance (km) Brightness Sun altitude
Rises 22:54:06 0° 320° (NW) 3,125 6.4 -28.3°
Reaches altitude 10° 22:56:29 10° 319° (NW) 2,204 5.3 -28.6°
Enters shadow 23:00:37 59° 306° (NW) 830 2.3 -29.0°
